Location: Demmingen
(48.6757°N, 10.4375°E)
Time: 18:52:14
(UTC+00:00)

COSMOS 2428 - Pass Details

Date: 23 May 2024
Orbit: 844 x 856 km, 70.9° (Epoch: 23 June)

Event Time Altitude Azimuth Distance (km) Brightness Sun altitude
Rises 01:57:14 0° 334° (NNW) 3,414 6.2 -11.8°
Reaches altitude 10° 01:59:50 10° 342° (NNW) 2,477 5.6 -11.5°
Maximum altitude 02:05:11 41° 52° (NE) 1,218 4.2 -11.0°
Drops below altitude 10° 02:10:31 10° 122° (ESE) 2,469 5.3 -10.4°
Sets 02:13:07 0° 130° (SE) 3,403 5.9 -10.1°
